{"data":{"norad_id":64572,"intl_designator":"2025-135AW","name":"ICEYE-X52","alt_names":[],"object_type":"PAYLOAD","status":"ACTIVE","operator":null,"country":"FIN","launch_date":"2025-06-23","launch_site_code":"AFWTR","launch_vehicle":null,"mission":null,"orbit_class":"UNKNOWN","rcs_meters":null,"size_class":null,"mass_kg":null,"dimensions":null,"purposes":[],"wikipedia_slug":null,"has_3d_model":false,"image_url":null,"decayed_at":null,"tle_current":{"epoch":"2026-05-25T03:45:37.717920Z","epoch_age_seconds":55507,"freshness":"FRESH","line1":"1 64572U 25135AW  26145.15668655  .00001319  00000+0  13080-3 0  9998","line2":"2 64572  97.7720 259.6636 0003130  67.8894 292.2658 14.93461530 50447","mean_motion":14.9346153,"eccentricity":0.000313,"inclination_deg":97.772,"raan_deg":259.6636,"arg_perigee_deg":67.8894,"mean_anomaly_deg":292.2658,"bstar":0.0001308,"rev_number":5044,"period_min":96.420294133723,"perigee_km":584.97198106944,"apogee_km":589.33225205641,"semimajor_km":6965.2891165629,"source":"CELESTRAK","updated_at":"2026-05-25T13:38:04.621379Z"}}}